Location: Observatorio Las Palmas
(29.0667°N, 110.9333°W)
Time: 04:50:53
(UTC-07:00)

Hubble Space Telescope - Visible Passes

Search period start: 08 December 2016 00:00
Search period end: 18 December 2016 00:00
Orbit: 538 x 542 km, 28.5° (Epoch: 07 December)

Date Brightness Start Highest point End Pass type
(mag) Time Alt. Az. Time Alt. Az. Time Alt. Az.
15 Dec 3.2 06:42:03 10° SSW 06:45:16 22° SSE 06:48:30 10° ESE visible
16 Dec 2.8 06:31:47 10° SW 06:35:18 27° SSE 06:38:51 10° E visible
17 Dec 2.3 06:21:37 10° SW 06:25:21 34° SSE 06:29:06 10° E visible
